Regional Weather Roundup
Issued by NWS

Home | Current Version | Previous Version | Text Only | Print | Product List | Glossary On
Versions: 1 2 3 4 5 6 7 8 9 10 11 12 13 14 15 16 17 18 19 20 21 22 23 24 25 26 27 28 29 30 31 32 33 34 35 36 37 38 39 40 41 42 43 44 45 46 47 48 49 50
000
ASUS43 KDMX 211406
RWRIA

WEATHER ROUNDUP FOR IOWA
NATIONAL WEATHER SERVICE DES MOINES IA
900 AM CDT MON AUG 21 2017

NOTE: "FAIR" INDICATES FEW OR NO CLOUDS BELOW 12,000 FEET WITH NO
SIGNIFICANT WEATHER AND/OR OBSTRUCTIONS TO VISIBILITY.

* - THESE STATIONS ARE NOT NWS STATIONS...THUS NOT UNDER NWS
QUALITY CONTROL.  THEY ALSO DO NOT REPORT WEATHER SUCH
AS PRECIPITATION OR FOG.

IAZ001>003-012>014-020>022-031>034-043>046-211500-
   NORTHWEST IOWA

CITY           SKY/WX    TMP DP  RH WIND       PRES   REMARKS
CARROLL *      CLOUDY    68  64  88 S13G18    30.04R
DENISON *      CLOUDY    66  63  88 SE13G26   30.01F FOG
LE MARS *      CLOUDY   104 N/A N/A S9G15     29.98F
ORANGE CITY *  PTSUNNY   70  66  88 S7        30.00S
SHELDON *      CLOUDY    70  66  88 S6G13     29.99R
SIOUX CITY     CLOUDY    72  64  76 S13G21    29.98F
SPENCER        CLOUDY    71  64  78 S12       29.99S
STORM LAKE *   CLOUDY    66  63  88 S18G25    30.00R
$$

IAZ055>058-069>071-079>083-090>094-211500-
   SOUTHWEST IOWA

CITY           SKY/WX    TMP DP  RH WIND       PRES   REMARKS
ATLANTIC *     CLOUDY    66  64  94 E15G24    30.03F FOG
AUDUBON *      CLOUDY    66  63  88 S7G21     30.05S
CLARINDA *     CLOUDY    70  66  88 E16       30.14R
COUNCIL BLFS * CLOUDY    68  68 100 SE13      30.03F
CRESTON *      RAIN      66  64  94 SE9       30.17R
HARLAN  *      CLOUDY    66  66 100 SE15G23   30.05F
LAMONI         CLOUDY    70  65  84 E10       30.11S
RED OAK *      CLOUDY    68  66  94 E13G22    30.07F
SHENANDOAH *   CLOUDY    70  64  83 E12G21    30.08F
$$

IAZ047>049-059>061-072>074-084-211500-
   CENTRAL IOWA

CITY           SKY/WX    TMP DP  RH WIND       PRES   REMARKS
AMES           LGT RAIN  75  61  61 S28G47    29.90F
ANKENY *       CLOUDY    68  63  83 MISG      30.05F
BOONE *        CLOUDY    72  61  68 SW13G22   29.97R
CHARITON *     CLOUDY    68  64  88 E6        30.12R
DES MOINES     LGT RAIN  69  64  84 E9        30.07F
GRINNELL*      CLOUDY    67  64  91 S18       30.03F
KNOXVILLE *    LGT RAIN  68  66  94 SE7       30.09R
MARSHALLTOWN   CLOUDY    70  64  81 S9        29.95F
NEWTON *       CLOUDY    66  64  94 S21G31    30.00F
PELLA *        RAIN      67  66  96 CALM      30.10F
PERRY *        LGT RAIN  68  65  90 S16G22    30.02S
$$

IAZ004>006-015-016-023>025-035-036-211500-
   NORTH CENTRAL IOWA

CITY           SKY/WX    TMP DP  RH WIND       PRES   REMARKS
ALGONA *       CLOUDY    68  66  94 CALM      29.99F
CLARION *      CLOUDY    66  64  94 CALM      29.98F
ESTHERVILLE    SUNNY     69  66  90 S7        29.99R
FORT DODGE *   CLOUDY    66  61  82 S3        29.97F
MASON CITY     CLOUDY    71  64  78 N7        30.01R
FOREST CITY *    N/A     72  59  64 CALM      29.99F
WEBSTER CITY * PTSUNNY   66  63  88 CALM      29.95F
IOWA FALLS *     N/A     68  62  79 SE3       29.98F
$$

IAZ007>011-017>019-026>030-037>042-050>054-066-211500-
   NORTHEAST IOWA

CITY           SKY/WX    TMP DP  RH WIND       PRES   REMARKS
CEDAR RAPIDS   LGT RAIN  68  67  96 S5        30.01F
CHARLES CITY * CLOUDY    70  63  78 N7        30.02R
CLINTON *      LGT RAIN  68  67  96 E3        30.09F FOG
DECORAH *      CLOUDY    68  64  88 E7        30.02F
DUBUQUE        CLOUDY    70  65  84 S9        30.07F
MONTICELLO *   CLOUDY    68  64  88 S9        29.99F
OELWEIN *      CLOUDY    73  59  60 S16G32    29.98R
WATERLOO       CLOUDY    71  59  65 S18G28    29.95R
$$

IAZ064-065-067-068-078-211500-
   EAST CENTRAL IOWA

CITY           SKY/WX    TMP DP  RH WIND       PRES   REMARKS
DAVENPORT      CLOUDY    69  67  93 NE7       30.07F
IOWA CITY      LGT RAIN  70  70 100 SE12      30.03F
MT. PLEASANT * CLOUDY    69  69  99 SE6       30.11S
MUSCATINE *    CLOUDY    72  68  88 SW7       30.07R
QUAD CITIES    LGT RAIN  71  67  87 NE3       30.06F FOG
$$

IAZ062-063-075>077-085>089-095>099-211500-
   SOUTHEAST IOWA

CITY           SKY/WX    TMP DP  RH WIND       PRES   REMARKS
BURLINGTON     TSTM      70  70 100 E9        30.12R FOG
FAIRFIELD *    CLOUDY    70  66  88 SE6       30.08F
FORT MADISON * CLOUDY    70  70 100 E6        30.12F
KEOKUK *       LGT RAIN  70  70 100 NE8       30.10F
OSKALOOSA *    LGT RAIN  67  66  97 CALM      30.09F
CENTERVILLE *    N/A     68  68 100 CALM      30.13F
OTTUMWA        LGT RAIN  70  67  90 CALM      30.09F
$$

ABBREVIATIONS USED IN REMARKS
   TC - TEMPERATURES IN CELSIUS
  WCI - WIND CHILL INDEX
   HX - HEAT INDEX
  VSB - VISIBILITY
$$





USA.gov is the U.S. government's official web portal to all federal, state and local government web resources and services.